Location: Newark
(25.0000°N, 73.5000°E)
Time: 21:28:41
(UTC+00:00)

Envisat - Visible Passes

Search period start: 11 December 2019 00:00
Search period end: 21 December 2019 00:00
Orbit: 764 x 766 km, 98.1° (Epoch: 11 December)

Date Brightness Start Highest point End Pass type
(mag) Time Alt. Az. Time Alt. Az. Time Alt. Az.
11 Dec 5.9 00:50:52 10° NE 00:54:36 20° E 00:58:17 10° SE visible
11 Dec 3.7 13:34:22 10° S 13:39:18 55° W 13:44:18 10° NNW visible
12 Dec 3.1 12:57:40 10° SSE 13:02:37 56° ENE 13:07:34 10° N visible
12 Dec 6.3 14:41:07 10° WSW 14:41:47 10° W 14:42:27 10° W visible
13 Dec 4.7 01:15:24 10° NNE 01:20:09 39° E 01:24:52 10° SSE visible
13 Dec 5.0 14:00:32 10° SSW 14:04:50 28° W 14:09:10 10° NW visible
14 Dec 6.1 00:40:21 10° ENE 00:43:15 15° E 00:46:09 10° SE visible
14 Dec 3.2 13:22:59 10° S 13:28:02 75° WSW 13:33:06 10° NNW visible
15 Dec 3.4 12:46:38 10° SE 12:51:23 42° ENE 12:56:08 10° N visible
15 Dec 6.0 14:27:47 10° SW 14:30:26 14° W 14:33:07 10° WNW visible
16 Dec 5.2 01:04:25 10° NE 01:08:51 30° E 01:13:14 10° SSE visible
16 Dec 4.5 13:48:53 10° SSW 13:53:32 37° W 13:58:12 10° NNW visible
17 Dec 6.4 00:30:29 10° ENE 00:31:54 11° E 00:33:20 10° ESE visible
17 Dec 2.9 13:11:42 10° SSE 13:16:46 83° ENE 13:21:51 10° N visible
18 Dec 5.6 14:15:33 10° SW 14:19:07 19° W 14:22:40 10° NW visible
19 Dec 5.7 00:53:35 10° NE 00:57:32 23° E 01:01:28 10° SSE visible
19 Dec 3.9 13:37:21 10° S 13:42:14 50° W 13:47:09 10° NNW visible
20 Dec 3.0 13:00:32 10° SSE 13:05:31 63° ENE 13:10:32 10° N visible
